This is the latest recevied weather packets stored in our database for station/object JH0KSP-13. If no packets are shown the sender has not sent any weather packets the latest 10 day(s).
| Time | Temp. | Humidity | Pressure | Rain* | Wind** | Luminosity | Snow |
|---|---|---|---|---|---|---|---|
| 1777730817 | 13.89° C | 68% | 1013.9 hPa | 0 mm | - | - | - |
| 1777730409 | 13.89° C | 68% | 1013.9 hPa | 0 mm | - | - | - |
| 1777729809 | 13.89° C | 63% | 1013.8 hPa | 0 mm | - | - | - |
| 1777729616 | 13.89° C | 62% | 1013.8 hPa | 0 mm | - | - | - |
| 1777728416 | 15° C | 59% | 1013.7 hPa | 0 mm | - | - | - |
| 1777728010 | 15° C | 58% | 1013.8 hPa | 0 mm | - | - | - |
| 1777727217 | 15° C | 57% | 1013.7 hPa | 0 mm | - | - | - |
| 1777726016 | 16.11° C | 54% | 1013.7 hPa | 0 mm | - | - | - |
| 1777725609 | 16.11° C | 52% | 1013.8 hPa | 0 mm | - | - | - |
| 1777724816 | 16.11° C | 50% | 1013.7 hPa | 0 mm | - | - | - |
| 1777722417 | 17.22° C | 48% | 1013.2 hPa | 0 mm | - | - | - |
| 1777721409 | 17.22° C | 48% | 1012.9 hPa | 0 mm | - | - | - |
| 1777721217 | 17.22° C | 48% | 1012.8 hPa | 0 mm | - | - | - |
| 1777720016 | 17.22° C | 46% | 1012.7 hPa | 0 mm | - | - | - |
| 1777718817 | 17.78° C | 46% | 1012.1 hPa | 0 mm | - | - | - |
| 1777717616 | 17.78° C | 44% | 1011.9 hPa | 0 mm | - | - | - |
| 1777716417 | 17.78° C | 43% | 1011.8 hPa | 0 mm | - | - | - |
| 1777715217 | 18.89° C | 42% | 1011.4 hPa | 0 mm | - | - | - |
| 1777714015 | 18.89° C | 41% | 1011 hPa | 0 mm | - | - | - |
| 1777712816 | 18.89° C | 40% | 1010.8 hPa | 0 mm | - | - | - |
| 1777711617 | 20° C | 39% | 1010.6 hPa | 0 mm | - | - | - |
| 1777710416 | 20° C | 38% | 1010.5 hPa | 0 mm | - | - | - |
| 1777709215 | 21.11° C | 38% | 1010.2 hPa | 0 mm | - | - | - |
| 1777708016 | 21.11° C | 40% | 1010.1 hPa | 0 mm | - | - | - |
| 1777706816 | 21.11° C | 38% | 1010.2 hPa | 0 mm | - | - | - |
* Rain latest hour (hover to see other rain measurements)
** Current wind speed in m/s (hover to see current wind gust speed)